CSS (TIANHE)

Last updated on Tue Oct 21 2025 00:02:11 GMT+0000 (Coordinated Universal Time)

1 48274U 21035A 25293.56770050 .00042045 00000+0 50045-3 0 9998 2 48274 41.4671 339.7631 0011453 250.2462 109.7142 15.60256545255721
UTC large
Height (km)
Speed (km/s)
/
Latitude / Longitude
Inclination (degrees)
Orbital Period (minutes)
Azimuth
Elevation
Range (km)
Doppler Factor

Next 0 passes for location: London (51.5072 / 0.1276)

Sorry there are no passes over London.